Location: Flotzheim
(48.8375°N, 10.8136°E)
Time: 16:03:48
(UTC+00:00)

COSMOS 2406 - Pass Details

Date: 23 January 2021
Orbit: 841 x 866 km, 71.0° (Epoch: 28 February)

Event Time Altitude Azimuth Distance (km) Brightness Sun altitude
Rises 18:33:57 0° 330° (NNW) 3,459 6.8 -25.0°
Reaches altitude 10° 18:36:25 10° 330° (NNW) 2,518 6.0 -25.4°
Maximum altitude 18:42:13 79° 244° (WSW) 885 3.3 -26.4°
Enters shadow 18:44:10 43° 166° (SSE) 1,189 3.8 -26.7°
